Weather History for Glasgow, MT

Change the Weather History Date:

Saturday, October 1, 2011

  Actual Average Record
Temperature  
Mean Temperature 69 °F 51 °F  
Max Temperature 89 °F 64 °F 90 °F (1992)
Min Temperature 49 °F 38 °F 17 °F (1936)
Degree Days  
Heating Degree Days 0 14  
Month to date heating degree days 0 14  
Since 1 July heating degree days 139 308  
Cooling Degree Days 4 0  
Month to date cooling degree days 4 0  
Year to date cooling degree days 546 532  
Growing Degree Days 20 (Base 50)    
Moisture  
Dew Point 37 °F    
Average Humidity 37    
Maximum Humidity 59    
Minimum Humidity 15    
Precipitation  
Precipitation 0.00 in 0.04 in 0.95 in (1897)
Month to date precipitation 0.00 0.04  
Year to date precipitation 21.16 10.15  
Snow  
Snow 0.00 in 0.00 in 0.60 in (1982)
Month to date snowfall 0.0 0.0  
Since 1 July snowfall 0.0 0.2  
Since 1 September snowfall 0.0 0.2  
Snow Depth 0.00 in    
Sea Level Pressure  
Sea Level Pressure 29.85 in    
Wind  
Wind Speed 8 mph (ESE)    
Max Wind Speed 18 mph    
Max Gust Speed 23 mph    
Visibility 10 miles    
Events      
T = Trace of Precipitation, MM = Missing Value Source: NWS Daily Summary

Daily Weather History Graph

Daily Weather History Graph

Search for Another Location

Airport:

Trip Planner

Search our weather history database for the weather conditions in past years. The results will help you decide how hot, cold, wet, or windy it might be!

Date:

Astronomy

Oct. 01, 2011 Rise Set
Actual Time 7:05 AM MDT 6:46 PM MDT
Civil Twilight 6:34 AM MDT 7:17 PM MDT
Nautical Twilight 5:58 AM MDT 7:53 PM MDT
Astronomical Twilight 5:21 AM MDT 8:29 PM MDT
Moon 12:42 PM MDT (10/1) 9:18 PM MDT (10/1)
Length of Visible Light 12h 42m
Length of Day
11h 40m
Waxing Crescent, 25% of the Moon is Illuminated
Oct 1
Waxing Crescent
Oct 3
First Quarter
Oct 11
Full
Oct 19
Last Quarter
Oct 26
New

Hourly Weather History & Observations

Time (MDT) Temp. Dew Point Humidity Pressure Visibility Wind Dir Wind Speed Gust Speed Precip Events Conditions
12:53 AM 59.0 °F 37.9 °F 46% 29.82 in 10.0 mi SE 3.5 mph - N/A   Clear
1:53 AM 64.0 °F 36.0 °F 35% 29.82 in 10.0 mi WSW 3.5 mph - N/A   Clear
2:53 AM 59.0 °F 35.6 °F 42% 29.86 in 10.0 mi SSW 4.6 mph - N/A   Clear
3:53 AM 60.1 °F 35.1 °F 39% 29.85 in 10.0 mi West 5.8 mph - N/A   Clear
4:53 AM 57.9 °F 35.1 °F 42% 29.86 in 10.0 mi NNW 3.5 mph - N/A   Clear
5:53 AM 52.0 °F 37.0 °F 57% 29.88 in 10.0 mi East 5.8 mph - N/A   Clear
6:53 AM 50.0 °F 36.0 °F 59% 29.91 in 10.0 mi SSE 3.5 mph - N/A   Clear
7:53 AM 55.4 °F 37.4 °F 51% 29.92 in 10.0 mi Calm Calm - N/A   Clear
8:53 AM 63.0 °F 37.0 °F 38% 29.92 in 10.0 mi NE 8.1 mph - N/A   Clear
9:53 AM 66.9 °F 42.1 °F 40% 29.92 in 10.0 mi South 4.6 mph - N/A   Clear
10:53 AM 73.9 °F 39.0 °F 28% 29.91 in 10.0 mi SE 4.6 mph - N/A   Clear
11:53 AM 78.1 °F 37.0 °F 23% 29.89 in 10.0 mi SE 10.4 mph - N/A   Clear
12:53 PM 84.0 °F 37.9 °F 19% 29.87 in 10.0 mi ESE 12.7 mph - N/A   Clear
1:53 PM 86.0 °F 37.4 °F 18% 29.88 in 10.0 mi SE 13.8 mph 20.7 mph N/A   Clear
2:53 PM 87.1 °F 35.1 °F 16% 29.82 in 10.0 mi SE 13.8 mph - N/A   Clear
3:53 PM 89.1 °F 35.1 °F 15% 29.81 in 10.0 mi ESE 16.1 mph - N/A   Clear
4:53 PM 89.1 °F 35.1 °F 15% 29.79 in 10.0 mi ESE 18.4 mph - N/A   Clear
5:53 PM 84.9 °F 36.0 °F 17% 29.78 in 10.0 mi ESE 13.8 mph - N/A   Clear
6:53 PM 77.0 °F 37.0 °F 24% 29.80 in 10.0 mi East 10.4 mph - N/A   Clear
7:53 PM 75.0 °F 37.0 °F 25% 29.79 in 10.0 mi East 11.5 mph - N/A   Clear
8:53 PM 73.9 °F 37.9 °F 27% 29.78 in 10.0 mi East 12.7 mph - N/A   Clear
9:53 PM 73.0 °F 37.9 °F 28% 29.83 in 10.0 mi ESE 8.1 mph - N/A   Scattered Clouds
10:53 PM 70.0 °F 39.0 °F 32% 29.81 in 10.0 mi ENE 6.9 mph - N/A   Clear
11:53 PM 64.9 °F 41.0 °F 42% 29.81 in 10.0 mi Calm Calm - N/A   Clear